Regional Weather Roundup
Issued by NWS Albany, NY

Home | Current Version | Previous Version | Text Only | Print | Product List | Glossary On
Versions: 1 2 3 4 5 6 7 8 9 10 11 12 13 14 15 16 17 18 19 20 21 22 23 24 25 26 27 28 29 30 31 32 33 34 35 36 37 38 39 40 41 42 43 44 45 46 47 48 49 50
000
ASUS41 KALY 070610
RWRALY

NEW YORK STATE HOURLY WEATHER ROUNDUP
NATIONAL WEATHER SERVICE ALBANY NY
100 AM EST WED DEC 07 2016

NOTE: "FAIR" INDICATES FEW OR NO CLOUDS BELOW 12,000 FEET WITH NO
SIGNIFICANT WEATHER AND/OR NO OBSTRUCTIONS TO VISIBILITY.

NYZ032-033-038>043-046>054-057>066-NYZ062>081-082-084-070700-
EAST


CITY           SKY/WX    TMP DP  RH WIND       PRES   REMARKS
ALBANY         LGT SNOW  33  30  88 E5        29.92S FOG     WCI  29
GLENS FALLS    LGT SNOW  33  29  85 E5        29.92S FOG     WCI  29
POUGHKEEPSIE   MIX PCPN  32  31  96 CALM      29.88F FOG
NEWBURGH       LGT RAIN  34  34 100 NE7       29.88F WCI  28
MONTGOMERY     LGT RAIN  34  32  92 N7        29.86F FOG     WCI  28
WHITE PLAINS   DRIZZLE   37  34  89 NE9       29.84F WCI  30
ISLIP          CLOUDY    41  39  93 NE10      29.85F
NEW YORK CITY  LGT RAIN  43  38  82 E13       29.85F
CENTRAL PARK   LGT RAIN  40  38  93 NE8       29.87F FOG     WCI  34
$$

NYZ005>009-017-018-044>046-055-056-070700-
CENTRAL


CITY           SKY/WX    TMP DP  RH WIND       PRES   REMARKS
FULTON         LGT SNOW  34  32  92 SE6       29.83F FOG     WCI  29
SYRACUSE       LGT SNOW  32  32 100 E8        29.85F FOG     WCI  25
ROME           LGT SNOW  32  32 100 W3        29.89R FOG
ELMIRA         CLOUDY    34  32  92 CALM      29.82S FOG
BINGHAMTON     LGT SNOW  31  31 100 S5        29.81S FOG     WCI  26
MONTICELLO     CLOUDY    32  30  93 E8        29.83F WCI  25
$$

NYZ026>034-041>043-087-070700-
NORTH


CITY           SKY/WX    TMP DP  RH WIND       PRES   REMARKS
WATERTOWN      LGT RAIN  34  32  92 E6        29.84F FOG     WCI  29
FORT DRUM      NOT AVBL
OGDENSBURG     CLOUDY    32  31  95 E3        29.87R
MASSENA        LGT SNOW  29  24  82 E7        29.91F WCI  22
SARANAC LAKE   CLOUDY    26  24  92 CALM      29.82F
PLATTSBURGH    CLOUDY    30  26  85 CALM      29.91F
$$

NYZ001>004-010>016-019>021-085-070700-
WEST


CITY           SKY/WX    TMP DP  RH WIND       PRES   REMARKS
NIAGARA FALLS  CLOUDY    40  36  86 S6        29.74F FOG
BUFFALO        DRIZZLE   37  35  92 SW9       29.75S FOG     WCI  30
DUNKIRK        CLOUDY    39  37  92 S9        29.77R WCI  33
JAMESTOWN      CLOUDY    36  34  93 S7        29.75R WCI  30
WELLSVILLE     LGT RAIN  35  32  88 S8G20     29.76S WCI  29
ROCHESTER      FLURRIES  35  34  96 SE7       29.78F WCI  29
PENN YAN       CLOUDY    34  31  88 S5        29.80S WCI  30
$$

             KEY
       WCI = WIND CHILL INDEX
       VSB = VISIBILITY
       HX  = HEAT INDEX
$$



USA.gov is the U.S. government's official web portal to all federal, state and local government web resources and services.